Retour au catalogue

STARLINK-36476

ActifCommunicationsVLEO
NORAD 67314·PAYLOAD·🇺🇸 United States

Lancé Jan 4, 2026 depuis Cape Canaveral Space Force Station

Loading…

Prochains Passages (prochaines 24 heures)

TLE

FraisSource: CelesTrak SupGP

Époque: Sep 15, 2026, 03:41 UTC

1 67314C 26002K   26258.15395833  .00049198  00000+0  17816-2 0  2584
2 67314  43.0030 335.3249 0001657 261.5944 127.3895 15.27560900    13

Suivez STARLINK-36476 en temps réel avec AllMySat

Download on the App Store